Terminal Aerodrome Forecast
Issued by NWS Sioux Falls, SD

Home | Current Version | Previous Version | Graphics & Text | Print | Product List | Glossary On
Versions: 1 2 3 4 5 6 7 8 9 10 11 12 13 14 15 16 17 18 19 20 21 22 23 24 25 26 27 28
000
FTUS43 KFSD 241100
TAFSUX
TAF
KSUX 241132Z 2412/2512 14006KT P6SM SCT150
     FM241500 21007KT P6SM BKN120
     FM241800 26008KT P6SM FEW035 SCT120
     FM250000 31004KT P6SM SCT100=

USA.gov is the U.S. government's official web portal to all federal, state and local government web resources and services.